Location: 476 Grange Obs.
(45.1420°N, 7.1420°E)
Time: 17:19:18
(UTC+01:00)

ISS - Visible Passes

Search period start: 23 February 2017 00:00
Search period end: 05 March 2017 00:00
Orbit: 399 x 408 km, 51.6° (Epoch: 24 February)

Date Brightness Start Highest point End Pass type
(mag) Time Alt. Az. Time Alt. Az. Time Alt. Az.
01 Mar 0.1 05:57:02 10° SE 05:57:08 10° SE 05:57:15 10° SE visible
03 Mar -1.0 05:45:29 10° S 05:48:04 22° SE 05:50:41 10° E visible
04 Mar -0.5 04:54:48 11° SSE 04:55:40 12° SE 04:57:05 10° ESE visible
04 Mar -3.2 06:28:21 10° SW 06:31:39 81° SSE 06:34:57 10° ENE visible
